Wind_Speed
41 39 38 36 35 33 32 30 28 27 25 23 22 19 17 14 13 13 13 15 16 16 15 15 15 15 14 14 14 13 12 11 12 12 13 13 13 13 16 17 16 15
44 43 41 39 38 36 34 32 30 29 27 25 23 20 18 17 16 15 14 14 17 17 17 16 16 16 17 16 15 13 13 13 13 13 13 13 13 15 19 19 16 15
45 44 44 43 42 40 37 35 33 31 29 27 25 23 21 20 19 18 16 16 16 18 19 18 17 17 17 18 16 15 14 14 14 14 14 14 14 15 19 20 17 16
46 45 45 44 44 43 40 38 36 35 33 31 29 26 24 22 21 20 19 18 18 18 20 20 19 18 18 18 18 16 15 14 14 14 15 15 15 14 16 18 18 18
47 46 46 44 44 44 43 41 39 37 36 34 32 30 27 25 24 23 22 21 20 19 20 21 20 20 20 19 19 19 18 16 16 16 16 16 16 15 15 15 17 19
47 48 47 46 44 44 43 42 40 38 38 36 35 33 31 28 26 25 24 23 23 22 22 22 21 22 22 21 21 21 20 19 18 18 18 18 17 16 16 15 16 18
47 48 48 48 47 46 45 43 41 40 39 37 36 35 33 32 29 28 27 26 25 24 24 23 23 22 23 23 23 22 22 21 20 20 20 19 18 18 18 17 17 18
46 47 48 49 49 48 47 45 44 42 40 39 38 37 35 34 32 30 29 28 28 27 26 25 25 24 24 24 24 23 23 22 22 22 22 21 20 20 19 19 18 18
46 47 48 49 49 50 49 47 46 44 42 41 39 38 37 35 34 32 31 30 30 29 28 27 27 26 26 25 25 24 23 23 23 23 23 22 22 21 20 20 20 20
46 46 48 49 50 50 50 49 47 46 44 43 41 39 38 37 35 34 32 32 33 32 30 29 29 29 28 28 27 25 24 23 23 23 23 23 23 21 21 21 21 21
45 45 47 49 50 50 51 49 48 48 46 45 43 42 40 38 36 35 34 34 34 33 32 30 30 30 30 30 29 28 26 24 23 23 23 23 23 22 21 21 22 21
46 45 45 47 48 49 50 50 49 48 47 46 45 43 42 40 38 36 35 34 34 33 33 32 30 30 30 30 30 29 28 27 25 24 23 23 22 22 22 22 22 21
47 46 44 44 46 47 48 49 49 49 48 47 46 44 43 41 40 38 36 35 34 34 33 32 31 31 30 30 31 30 29 28 28 26 24 23 23 22 21 22 22 22
47 46 44 43 44 45 47 48 48 48 48 47 46 45 44 42 41 39 37 36 35 35 34 33 32 32 31 30 31 31 31 29 28 28 27 25 24 22 21 21 21 21
46 46 45 44 44 45 46 47 48 48 47 47 46 45 44 43 41 39 39 38 37 36 35 35 34 34 32 31 30 31 31 30 28 28 28 27 26 24 22 21 21 20
45 45 45 45 45 45 46 47 48 48 47 47 47 46 44 43 42 41 40 39 39 38 38 37 36 35 33 31 30 31 31 31 29 28 28 27 27 26 24 23 22 21
45 45 45 45 45 45 46 46 47 48 48 48 47 46 45 43 42 42 41 40 40 39 39 39 38 35 33 32 31 31 31 31 30 29 28 28 27 27 26 24 22 22
44 44 44 45 45 45 45 46 46 47 48 48 48 47 45 44 43 42 42 41 40 40 40 40 38 36 33 32 32 31 31 31 30 30 29 28 28 27 27 26 24 23
43 43 43 44 44 44 44 45 46 48 48 48 48 47 46 45 44 42 42 41 42 42 41 40 38 36 34 34 33 32 31 31 31 30 29 28 28 27 27 26 25 24
43 42 42 42 42 43 43 45 46 47 48 48 48 47 47 46 45 43 42 42 42 42 42 41 39 36 34 34 33 32 32 32 32 32 31 30 28 28 27 26 25 25
43 42 41 41 40 41 43 44 46 47 47 48 48 48 48 47 46 44 43 42 42 42 42 41 39 36 35 34 33 32 32 32 33 33 33 32 31 30 29 28 27 26
43 42 42 41 40 41 42 44 45 47 47 48 48 48 48 47 46 45 44 42 41 42 43 42 39 37 35 34 32 30 30 32 33 34 35 35 34 32 31 30 29 28
44 43 43 42 41 41 43 43 44 45 47 47 48 48 48 48 47 46 45 43 42 42 42 42 40 38 36 35 32 30 29 30 31 33 35 35 35 34 32 31 31 30
44 44 44 43 43 43 43 43 43 44 45 46 48 49 48 48 47 46 45 44 43 42 42 42 41 39 37 36 34 32 30 29 29 30 32 34 34 34 34 33 32 31
44 46 45 45 45 44 44 43 43 43 44 45 47 48 48 48 47 46 46 46 45 43 42 41 41 40 39 37 36 34 32 30 29 29 30 30 31 32 33 33 32 31
45 47 48 46 45 45 44 44 43 43 43 44 46 47 47 47 47 47 47 46 46 45 44 42 41 41 40 39 37 36 35 33 31 31 30 29 29 29 30 30 30 30
Wind_Direction
211 211 211 211 213 213 214 214 213 213 216 216 215 218 221 222 223 222 219 213 209 211 213 213 211 209 209 209 206 202 200 205 208 207 206 204 199 191 183 177 174 177
212 213 213 213 215 217 218 220 220 219 222 224 224 225 228 231 233 232 231 223 214 213 214 216 215 210 210 215 217 212 206 205 206 206 205 204 200 193 185 181 181 186
213 214 214 215 217 220 222 223 224 226 227 229 230 231 232 234 235 236 234 231 223 217 216 218 216 212 211 215 219 220 213 207 207 209 209 207 203 198 194 192 190 191
215 215 215 217 219 222 225 225 226 228 230 231 233 234 235 235 236 236 234 234 230 221 218 219 218 214 214 216 219 222 221 214 210 213 214 212 211 206 204 205 201 197
218 217 216 218 220 222 225 227 227 228 229 232 234 235 236 236 235 235 233 232 231 226 219 219 220 219 217 218 219 221 224 221 215 216 217 215 218 216 211 214 211 206
222 220 219 219 220 222 224 227 228 228 229 231 233 235 236 236 236 235 234 232 231 228 223 219 220 220 220 221 222 222 225 225 220 220 220 217 219 220 218 219 216 212
226 224 222 221 222 223 225 227 229 229 230 231 233 235 236 237 237 236 235 234 232 230 226 222 219 219 221 223 224 223 224 226 224 223 224 222 219 220 220 220 220 218
227 227 226 225 224 225 226 228 230 231 232 233 234 235 236 237 238 237 236 235 233 232 230 225 221 219 220 222 225 225 224 225 225 225 227 226 223 222 221 222 224 225
228 229 229 228 227 226 227 229 231 232 234 234 235 236 237 238 239 239 238 236 234 233 232 229 225 221 220 222 225 227 226 225 226 226 227 228 228 226 223 224 227 229
227 229 229 229 229 229 229 229 230 232 234 235 236 237 238 239 240 240 239 237 234 232 232 232 229 225 223 223 225 228 229 228 227 228 228 229 230 230 227 228 230 231
227 229 229 230 230 231 231 231 231 232 233 235 236 237 239 239 240 239 239 237 234 232 232 233 232 229 226 224 225 227 230 230 230 231 231 231 231 231 231 231 233 235
227 229 230 231 232 232 232 232 232 232 233 234 236 237 238 239 239 239 238 237 235 233 233 234 234 233 230 228 227 227 229 231 231 232 234 235 234 232 231 232 234 236
228 229 231 232 233 234 233 233 232 233 233 234 235 236 237 238 238 238 238 238 236 235 234 235 236 236 235 231 229 229 229 230 231 232 233 235 236 234 232 232 234 236
230 231 232 234 235 234 234 234 233 233 233 234 235 235 236 237 238 238 238 238 237 236 236 236 237 238 238 235 232 230 230 230 231 231 232 233 236 236 236 235 235 236
231 232 234 235 236 235 235 235 234 233 234 234 234 235 235 236 237 238 239 238 236 235 235 236 237 238 238 237 235 232 230 230 230 230 232 234 236 238 239 240 238 237
231 233 235 235 236 236 236 236 234 233 233 233 234 235 235 236 236 237 238 238 237 235 235 235 236 238 238 238 236 234 232 231 231 230 231 233 235 238 241 242 242 241
232 234 235 236 237 237 238 237 235 234 233 233 234 234 235 235 235 235 236 237 237 236 235 235 236 237 237 237 237 236 235 235 234 234 233 234 235 236 239 242 244 245
234 235 236 237 238 238 238 237 236 234 233 232 233 234 234 234 235 235 236 236 236 236 236 237 237 238 238 238 237 236 236 236 237 238 237 238 237 237 240 243 245 246
235 237 238 238 239 239 239 238 236 234 233 232 232 233 234 234 235 235 235 236 236 236 237 237 239 240 240 240 239 238 237 237 238 240 241 241 241 242 243 245 246 248
235 237 239 240 240 240 239 237 236 234 233 232 231 232 233 234 235 235 235 235 235 236 237 238 240 241 241 242 242 240 239 239 239 241 242 243 244 245 246 247 248 250
235 237 239 241 241 240 239 238 236 235 234 232 231 231 232 233 235 236 235 235 235 235 237 238 240 241 242 243 243 243 242 242 242 243 244 246 247 247 249 250 251 252
236 237 239 241 242 241 240 239 237 235 233 232 231 230 232 233 235 236 236 235 235 235 236 238 240 241 242 243 243 243 244 244 244 245 246 247 248 249 249 250 251 253
236 238 239 240 241 241 241 240 239 237 234 233 231 230 231 232 233 235 236 236 235 234 235 238 240 241 242 242 243 242 242 244 245 246 247 248 249 249 249 249 250 251
237 239 240 240 240 242 243 242 240 238 236 234 232 230 231 232 232 234 235 236 236 235 235 238 241 242 243 243 243 242 241 242 244 245 247 248 248 248 248 248 248 248
238 239 240 241 242 243 243 243 241 240 238 236 233 232 231 232 232 233 234 235 236 236 237 238 241 243 244 245 245 244 242 241 242 243 245 247 247 247 248 248 247 247
239 238 239 241 243 243 243 243 242 241 238 237 234 232 231 231 232 233 233 234 235 236 237 239 240 242 244 246 246 245 243 242 241 241 243 245 246 247 247 248 247 247
Height
1561 1563 1564 1566 1567 1569 1570 1572 1573 1574 1576 1577 1578 1580 1581 1582 1584 1585 1586 1587 1588 1589 1590 1591 1591 1592 1592 1593 1594 1594 1595 1595 1596 1596 1597 1597 1598 1598 1598 1599 1599 1600
1558 1560 1562 1564 1565 1567 1568 1570 1571 1572 1574 1575 1577 1578 1580 1581 1582 1583 1584 1585 1586 1587 1588 1589 1590 1591 1592 1592 1593 1593 1594 1594 1595 1595 1596 1596 1597 1597 1598 1598 1599 1599
1555 1557 1559 1561 1562 1564 1566 1568 1570 1571 1572 1574 1575 1577 1578 1580 1581 1582 1583 1584 1585 1585 1586 1587 1588 1590 1590 1591 1592 1592 1593 1594 1594 1595 1595 1595 1596 1597 1597 1598 1598 1598
1552 1554 1556 1558 1559 1561 1564 1566 1567 1569 1570 1572 1573 1575 1577 1578 1579 1580 1581 1582 1583 1584 1585 1586 1587 1588 1589 1590 1590 1591 1592 1592 1593 1594 1594 1595 1595 1596 1597 1597 1597 1598
1548 1551 1553 1555 1557 1559 1561 1563 1565 1566 1568 1569 1571 1573 1574 1576 1577 1578 1579 1580 1581 1582 1583 1584 1585 1586 1587 1588 1589 1590 1590 1591 1592 1593 1593 1594 1594 1595 1596 1596 1597 1597
1545 1548 1550 1552 1554 1556 1558 1559 1562 1564 1566 1567 1569 1570 1572 1573 1575 1576 1577 1578 1579 1580 1581 1582 1583 1584 1585 1586 1587 1588 1589 1590 1591 1591 1592 1592 1593 1594 1595 1595 1596 1596
1542 1544 1547 1549 1551 1553 1555 1557 1559 1561 1563 1565 1567 1568 1570 1571 1572 1573 1575 1576 1577 1578 1579 1580 1581 1582 1583 1584 1586 1587 1588 1589 1590 1590 1591 1591 1592 1593 1593 1594 1595 1595
1538 1541 1544 1546 1548 1550 1552 1554 1556 1558 1560 1562 1564 1565 1567 1569 1570 1571 1572 1573 1574 1575 1577 1578 1579 1580 1582 1583 1584 1585 1586 1587 1588 1589 1590 1590 1591 1592 1592 1593 1593 1594
1535 1538 1540 1543 1545 1547 1548 1550 1553 1555 1557 1559 1561 1563 1564 1566 1568 1569 1570 1571 1572 1573 1574 1576 1577 1578 1580 1581 1582 1583 1584 1586 1587 1587 1588 1589 1589 1590 1591 1592 1592 1593
1532 1534 1537 1539 1541 1543 1545 1547 1550 1552 1554 1556 1558 1560 1561 1563 1565 1566 1568 1569 1570 1571 1572 1573 1575 1576 1578 1579 1580 1582 1583 1584 1585 1586 1587 1587 1588 1589 1590 1590 1591 1591
1528 1530 1533 1535 1537 1540 1542 1545 1547 1549 1551 1553 1555 1557 1558 1560 1562 1563 1565 1566 1567 1568 1570 1571 1573 1574 1575 1577 1578 1580 1581 1582 1583 1584 1585 1586 1587 1587 1588 1589 1589 1590
1525 1527 1529 1531 1534 1536 1539 1542 1544 1546 1549 1550 1552 1554 1556 1557 1559 1560 1562 1563 1564 1566 1567 1569 1570 1572 1573 1574 1576 1578 1579 1580 1581 1582 1583 1584 1585 1586 1587 1587 1588 1589
1522 1524 1526 1528 1530 1533 1536 1539 1541 1543 1545 1547 1549 1551 1553 1554 1556 1557 1559 1560 1562 1563 1565 1566 1568 1569 1571 1572 1574 1575 1577 1578 1579 1580 1581 1582 1583 1584 1585 1586 1586 1587
1519 1522 1524 1526 1528 1531 1533 1535 1538 1540 1542 1544 1547 1548 1550 1551 1553 1554 1556 1557 1559 1560 1562 1564 1565 1566 1568 1570 1572 1573 1574 1576 1577 1578 1579 1580 1581 1582 1583 1584 1584 1585
1517 1520 1522 1524 1526 1528 1530 1532 1534 1537 1539 1541 1543 1545 1546 1548 1550 1552 1553 1555 1556 1558 1559 1561 1562 1564 1565 1567 1569 1571 1572 1573 1575 1576 1577 1578 1579 1580 1581 1582 1583 1583
1515 1517 1519 1521 1523 1525 1527 1529 1532 1534 1536 1538 1540 1542 1544 1546 1547 1549 1550 1552 1553 1555 1556 1558 1559 1561 1562 1565 1567 1568 1570 1571 1572 1573 1575 1576 1577 1578 1579 1580 1580 1581
1512 1514 1516 1518 1520 1522 1524 1526 1529 1531 1533 1535 1537 1539 1541 1543 1545 1546 1547 1549 1550 1552 1553 1555 1556 1558 1560 1562 1564 1566 1567 1569 1570 1571 1572 1573 1574 1575 1576 1577 1578 1579
1508 1510 1513 1514 1516 1518 1520 1523 1526 1528 1530 1532 1534 1536 1538 1540 1542 1543 1544 1546 1548 1549 1550 1552 1553 1555 1557 1559 1561 1563 1565 1566 1567 1569 1569 1571 1572 1573 1574 1575 1576 1576
1504 1506 1508 1510 1513 1515 1517 1520 1522 1524 1526 1529 1531 1533 1535 1537 1538 1540 1542 1543 1545 1546 1547 1549 1550 1552 1554 1556 1558 1560 1562 1563 1565 1566 1567 1568 1569 1570 1571 1572 1573 1574
1498 1501 1503 1506 1509 1512 1514 1516 1518 1520 1523 1526 1528 1531 1532 1533 1535 1537 1538 1540 1541 1543 1544 1546 1547 1549 1551 1553 1555 1557 1559 1561 1562 1563 1564 1565 1566 1567 1569 1569 1570 1571
1493 1496 1499 1502 1505 1508 1511 1512 1515 1517 1519 1523 1525 1527 1529 1530 1532 1533 1535 1537 1538 1540 1541 1543 1544 1546 1548 1550 1552 1554 1557 1558 1560 1561 1562 1562 1563 1565 1566 1566 1567 1568
1489 1492 1495 1498 1502 1504 1506 1508 1511 1513 1516 1519 1522 1524 1526 1527 1528 1530 1532 1534 1535 1537 1539 1540 1541 1543 1545 1547 1550 1552 1554 1556 1557 1558 1559 1560 1560 1561 1563 1563 1564 1565
1487 1489 1491 1495 1498 1500 1502 1504 1507 1510 1513 1516 1518 1520 1522 1523 1525 1527 1529 1531 1533 1534 1535 1536 1538 1540 1542 1544 1547 1549 1552 1553 1554 1555 1556 1556 1557 1558 1559 1560 1561 1562
1484 1486 1488 1491 1494 1496 1498 1501 1504 1507 1510 1513 1515 1517 1519 1520 1522 1524 1526 1527 1529 1531 1532 1534 1535 1537 1539 1541 1544 1547 1549 1550 1552 1552 1553 1553 1554 1555 1556 1557 1558 1559
1481 1483 1485 1487 1489 1492 1495 1498 1501 1504 1507 1509 1512 1514 1516 1518 1520 1521 1523 1524 1526 1527 1529 1531 1532 1534 1536 1538 1541 1543 1546 1548 1549 1550 1550 1550 1551 1551 1552 1553 1554 1555
1478 1480 1481 1484 1486 1488 1491 1495 1497 1500 1503 1505 1508 1510 1513 1515 1517 1518 1519 1521 1523 1524 1526 1528 1529 1531 1533 1535 1537 1540 1542 1544 1546 1546 1547 1547 1548 1548 1549 1550 1551 1552